AQI (30)

Current Conditions for Foresthill, CA. Clear skies, Dry   
Visibility: 10 miles
Foresthill Advisory text:

  Summary / Temperature 

Current Temperature
35.9°F
2.2°C
(24/hr Ago)
38.0°F
(Apparent temp)
32.3°F
Cool
Wind Chill Graphs
35.9°F 
Wind Chill-Avg
37.9°F 3.3°C
 --- Virtual Temp: 37.1°F ---

 Temp Rate:

 24/hr Difference:

 Avg Running Temp:

 Todays High:

 Todays Low:

 Y-days High:

 Y-days Low:

 Todays WChill:

 Y-days WChill:

 Evapotranspiration:

-2.4°F/hr 

-2.1°F

37.9°F

44.4°F 2:48pm

31.2°F 4:55am

42.3°F 2:08pm

33.1°F 11:54pm

21.7°F 5:30am

31.6°F 10:50pm

0.054 in

115' Above Ground

 Temperature:

 6'AGL VRS 115'AGL:

 Avg Running Temp:

 Humidity:

 Todays High:

 Todays Low:

 Y-days High:

 Y-days Low:

40.0°F 

+4.1°F

40.7°F

69% 

46.0°F 10:37am

34.0°F 3:07am

45.0°F 1:50pm

36.0°F 11:34pm

Temp & Humidity Graphs

  Wind 

Wind Speed

 Calm

Gusting to

 None

Calm

302°  

Calm

 Avg speed:

 Wind Run:

 Peak Gust:

Calm 

16.0 miles

  13.0 mph 1:54am

  Almanac  

Moon age: 3 days,15 hours,51 minutes,15%

Waxing Crescent
15%
Illuminated
3 days in cycle

 Moonrise:

 Moonset:

 Sunrise:

 Sunset:

 Solar Noon:

9:27am

8:49pm

7:16am

5:08pm

12:15pm

1min 40s more daylight tomorrow 

  Solar Radiation 

(Current Solar)
  No Sun Light
(Todays High)
 564 W/m2@12:00pm

Rain

 Rain Today:

 Rain Rate (/hr):

 Rain last hour:

 Rain Yesterday:

 This Month:

 Season Total:

2 Days Since Last Dry Day

0.00 in

0.000 in

0.00 in

0.11 in

6.89 in

20.20 in

Updated Time

Updated: 1/20/18  7:07pm

(Updated  sec ago)

Humidity & Barometer

 Humidity:

 Wetbulb:

 Dew Point:

 Barometer:

84% 

34.2°F 

31.5°F 

30.276 inHg 

 Baro Trend:  Rising Slowly 
Northern Calif
Preparedness
Fire 
Level 

    UV Index  

(Current UV)
0.0  None
(Todays High) @ 11:43am
1.8   Low

National Weather Service Forecast

Tonight

Tonight: Partly Cloudy
Partly Cloudy
Sunday

Sunday: Chance Light Rain
Chance Light Rain
Sunday
Night
Sunday Night: Chance Light Rain then Rain Showers
Chance Light Rain then Rain Showers
Monday

Monday: Chance Rain Showers
Chance Rain Showers
Monday
Night
Monday Night: Mostly Cloudy
Mostly Cloudy
Tuesday

Tuesday: Partly Sunny then Slight Chance Rain Showers
Partly Sunny
Lo 34 °F Hi 46 °F Lo 38 °F Hi 48 °F Lo 39 °F Hi 54 °F

Foresthill Probe 2 Stats  
Foresthill Probe 2: is located on Thomas Street
at 3000 feet. The main Foresthill Weather site
is located on Melody ln at the 2860 foot elevation

Calm
35.3°F
1.8°C
Temp Rate:
-2.3°F
Calm
Gusting to
None
(Humidity)
85%
Calm
360°  
Updated: 20/01/18 - 19:03:14
 Todays High: 44.2°F 13:02
 Todays Low: 29.4°F 05:23
 Rain Today: 0.00 in
 Season Total: 20.98 in

Foresthill Wx: Monthly,Yearly, Highs and Lows 

Foresthill  
This Weather Data is coming from the main Foresthill
Weather site located on Melody ln at the 2860 foot
elevation
Not Foresthill Probe 2
Weather Data
Month
  High
Month
  Low
Year
High
Year
Low
Temp 63.0°F
1/14/18
31.2°F
1/20/18
63.0°F
1/14/18
31.2°F
1/20/18
Humidity 100%
1/8/18
37%
1/1/18
100%
1/8/18
37%
1/1/18
Heat Index 64.3°F
1/14/18
36.5°F
1/20/18
64.3°F
1/14/18
36.5°F
1/20/18
Wind Chill 63.0°F
1/14/18
21.7°F
1/20/18
63.0°F
1/14/18
21.7°F
1/20/18
Wind Gust 31 mph
1/16/18
0 mph
1/1/18
31 mph
1/16/18
0 mph
1/1/18
Barometer 30.44 in
1/12/18
29.63 in
1/9/18
30.44 in
1/12/18
29.63 in
1/9/18
ET 0.08 in
1/1/18
0.00 in
1/1/18
0.08 in
1/1/18
0.00 in
1/1/18
Dew Point 52.5°F
1/5/18
27.0°F
1/20/18
52.5°F
1/5/18
27.0°F
1/20/18
Pacific Satellite US Radar Satellite Imagery Sacramento,CA.  (click to enlarge)
NWS Weather Forecast - Summary
Updated: Sat Jan 20 2018 .DISC - 1:32pm (PST)
Current Interstate Highway Conditions for I-80 & US-50

[I 80: IN THE SAN FRANCISCO BAY AREA - SOLANO CO]
no traffic restrictions are reported for this area.


[I 80: IN THE NORTHERN CALIFORNIA AREA & SIERRA NEVADA]
no traffic restrictions are reported for this area.

[US 50: IN THE SACRAMENTO VALLEY & THE LAKE TAHOE BASIN]
no traffic restrictions are reported for this area.
NWS Weather Forecast: Tonight and Sunday (Updated: Sat, 20-Jan-2018 3:11pm PST)
Tonight

Tonight: Partly Cloudy
Partly Cloudy

Lo 34 °F
NWS forecast: Partly cloudy, with a low around 34. Northeast wind around 7 mph.
Sunday

Sunday: Chance Light Rain
Chance Light Rain

Hi 46 °F
NWS forecast: A chance of rain after 10am. Mostly cloudy. High near 46, with temperatures falling to around 40 in the afternoon. South southeast wind 6 to 10 mph. Chance of precipitation is 40%. New rainfall amounts between a tenth and quarter of an inch possible.
YR.NO 10 Day Weather forecast
Last update: 01/20/2018 @ 11:43
Next update: 01/21/2018 @ 00:00
Provided by: 22
      Temperature Precipitation Pressure Wind  
Today
01/20/2018
17:00 18:00 37°F   30.16 inHg Light air from west 2 mph
  18:00 00:00 36°F   30.18 inHg Light air from east-southeast 1 mph
    (Click to enlarge)
meteogram

    Forecast for next 9 days

      Temperature Precip Pressure Wind  
Sunday
01/21/2018
00:00 06:00 27°F   30.25 inHg Light breeze from east-northeast 6 mph
  06:00 12:00 23°F   30.29 inHg Light breeze from east-northeast 4 mph
  12:00 18:00 45°F   30.35 inHg Light breeze from south-southwest 6 mph
  18:00 00:00 37°F 0.04 in 30.35 inHg Light breeze from southeast 4 mph
      Temperature Precip Pressure Wind  
Monday
01/22/2018
00:00 06:00 36°F 0.13 in 30.38 inHg Light breeze from east 6 mph
  06:00 12:00 36°F 0.07 in 30.33 inHg Light breeze from east 4 mph
  12:00 18:00 43°F   30.35 inHg Light breeze from south-southwest 5 mph
  18:00 00:00 41°F   30.32 inHg Light air from northeast 3 mph
      Temperature Precip Pressure Wind  
Tuesday
01/23/2018
00:00 06:00 28°F   30.30 inHg Light breeze from east-northeast 5 mph
  04:00 10:00 27°F   30.24 inHg Light breeze from east-northeast 6 mph
  10:00 16:00 45°F   30.28 inHg Light air from southeast 1 mph
  16:00 22:00 46°F   30.21 inHg Light air from southwest 2 mph
  22:00 04:00 32°F   30.18 inHg Light breeze from east-northeast 6 mph
      Temperature Precip Pressure Wind  
Wednesday
01/24/2018
04:00 10:00 32°F   30.12 inHg Light breeze from east-northeast 6 mph
  10:00 16:00 50°F   30.06 inHg Light breeze from south-southeast 5 mph
  16:00 22:00 48°F 0.28 in 29.94 inHg Gentle breeze from south 9 mph
  22:00 04:00 39°F 0.46 in 29.99 inHg Gentle breeze from south-southeast 9 mph
      Temperature Precip Pressure Wind  
Thursday
01/25/2018
04:00 10:00 34°F   30.04 inHg Light breeze from west-southwest 4 mph
  10:00 16:00 36°F 0.08 in 30.12 inHg Light breeze from south 6 mph
  16:00 22:00 32°F 0.45 in 30.09 inHg Light breeze from south-southwest 7 mph
  22:00 04:00 32°F 0.22 in 30.15 inHg Gentle breeze from south-southwest 11 mph
      Temperature Precip Pressure Wind  
Friday
01/26/2018
04:00 10:00 28°F 0.05 in 30.24 inHg Light breeze from south-southeast 5 mph
  10:00 16:00 32°F   30.37 inHg Light breeze from southeast 4 mph
  16:00 22:00 34°F   30.34 inHg Light breeze from west-southwest 4 mph
  22:00 04:00 18°F   30.38 inHg Light breeze from east-northeast 5 mph
      Temperature Precip Pressure Wind  
Saturday
01/27/2018
04:00 10:00 14°F   30.38 inHg Light breeze from east-northeast 6 mph
  10:00 16:00 37°F   30.44 inHg Light air from east-northeast 3 mph
  16:00 22:00 39°F   30.38 inHg Light breeze from west-northwest 4 mph
  22:00 04:00 28°F   30.38 inHg Light breeze from east-northeast 5 mph
      Temperature Precip Pressure Wind  
Sunday
01/28/2018
04:00 10:00 27°F   30.34 inHg Light breeze from east-northeast 5 mph
  10:00 16:00 46°F   30.34 inHg Light air from east 2 mph
  16:00 22:00 48°F   30.22 inHg Calm from west-northwest 0 mph
  22:00 04:00 32°F   30.21 inHg Light breeze from east-northeast 5 mph
      Temperature Precip Pressure Wind  
Monday
01/29/2018
04:00 10:00 30°F   30.14 inHg Light breeze from east-northeast 4 mph
  10:00 16:00 48°F   30.14 inHg Light air from east-northeast 3 mph
  16:00 22:00 54°F   30.08 inHg Light air from west-northwest 2 mph
  22:00 04:00 32°F   30.10 inHg Light breeze from east-northeast 7 mph

NOAA Local Storm Report
KYBURZ   ( More )
DATE
01/19/2018
TIME
8:00 AM
COUNTY
EL DORADO
STATE
CA
GEOGRAPHIC
38.77N 120.30W
SOURCE
TRAINED SPOTTER
SNOW ESTIMATED AT 1.3 INCH
trained spotter reported 1. 25 inches of snow at kyburz, elevation 4000 feet.
How Close Are We To this Month's Temperature Record ?
Updated Saturday, Jan 20, 2018- 7:00:00 PM

Current Temperature: 35.9°F

January's High: Temperature Record 71.3°F - Set on Sat, Jan 24, 2015 - 3:19:00 PM
We are currently 35.4°F Less than this Month's record High

January's Low: Temperature Record 24.7°F - Set on Sun, Jan 13, 2013 - 7:29:00 AM
We are currently 11.2°F More than this Month's record Low

Weather History For Saturday, January 20, 2018


On this Day - In Weather History ...
Data courtesy of weatherforyou.com
powered by Cumulus v1.9.3 (1059)
Ambient Weather VWS v14.00
Top Contact Website Map Copyright © 2007 - 2018 Foresthillweather.com Never base important decisions on this or any weather information obtained from the Internet